User: anonymous   Login
Location: Unspecified
(0.0000°N, 0.0000°E)
Time: 08:54:28
(UTC+00:00)
Language:

Megsat 1 - Orbit

View from above orbital plane
View from above orbital plane
View from above satellite
View from above satellite

Ground track
Ground track

The orbit data is extracted from the following two-line orbital elements,

1 26545U 00057A   19346.17658790 -.00000073  00000-0  96563-5 0  9995
2 26545  64.5529 150.0712 0055172 279.8166  79.6715 14.85023257 39161
Epoch (UTC): 12 December 2019 04:14:17
Eccentricity: 0.0055172
inclination: 64.5529°
perigee height: 575 km
apogee height: 652 km
right ascension of ascending node: 150.0712°
argument of perigee: 279.8166°
revolutions per day: 14.85023257
mean anomaly at epoch: 79.6715°
orbit number at epoch: 3916

The dashed part of the orbit path shows where the satellite is in the earth's shadow,  

DLR